Regional Weather Roundup
Issued by NWS Midland/Odessa, TX

Skip options and go directly to product.
Home | Oldest Version | Previous Version | Current Version | All | Text Only | Save Text | Print | Product List | Glossary On

Skip product version selection by date and time.   
174
ASUS44 KMAF 010510
RWRMAF
MIDLAND AREA WEATHER ROUNDUP
NATIONAL WEATHER SERVICE MIDLAND TX
1200 AM CDT WED APR 01 2015

...IN SOUTHWEST TEXAS AND SOUTHEAST NEW MEXICO...

CITY           SKY/WX    TMP DP  RH WIND       PRES   REMARKS
ALPINE         CLOUDY    61  43  51 SW6       30.13R
ANDREWS        CLOUDY    67  42  40 SW8       29.96R
ARTESIA        CLOUDY    66  43  42 SW17      29.93F
BIG SPRING     CLOUDY    74  45  35 S14       29.95S
CARLSBAD       MOCLDY    59  44  57 W9        29.93R
DRYDEN           N/A     68  63  84 E12       29.96S
FORT STOCKTON  CLOUDY    65  46  50 SW9       29.98S
GUAD PASS      MOCLDY    58  40  51 W25G31    30.07F
HOBBS          PTCLDY    57  39  51 S7        29.96F
MARFA          CLOUDY    54  43  66 S3        30.11S
MIDLAND AIRPK  CLOUDY    72  47  39 S9        29.95R
MIDLAND INTL   CLOUDY    70  48  45 S10       29.94S
ODESSA         CLOUDY    69  45  41 S9        29.95S
PECOS          CLOUDY    66  45  45 S7        29.93S
PRESIDIO       FAIR      63  54  72 NE7       30.02S
SEMINOLE       MOCLDY    60  44  55 CALM      29.95F
SNYDER         CLOUDY    66  51  57 SE7       29.91S
WINK           CLOUDY    66  46  48 S9        29.92F
$$
...OTHER STATIONS IN TEXAS...

CITY           SKY/WX    TMP DP  RH WIND       PRES   REMARKS
ABILENE        MOCLDY    70  52  52 S7        29.90R
AMARILLO       CLEAR     59  38  45 S10       29.88S
AUSTIN         CLOUDY    69  67  93 S13       29.95S
BROWNSVILLE    PTCLDY    71  69  93 SE12      29.99F
CORPUS CHRISTI MOCLDY    71  67  87 S15       29.96R
DALLAS FTW     CLOUDY    71  61  70 S13       29.90R
DEL RIO        CLOUDY    69  63  81 E8        29.93S
EL PASO        PTCLDY    65  43  44 S10       30.00S
HOUSTON INT    CLOUDY    72  67  84 S8        29.98F
LUBBOCK        CLOUDY    61  45  55 S9        29.90S
SAN ANGELO     CLOUDY    70  61  73 S15       29.93F
SAN ANTONIO    CLOUDY    70  67  90 S9        29.98F
WACO           CLEAR     66  61  84 S9        29.91S
WICHITA FALLS  NOT AVBL
$$
...OTHER LOCATIONS IN NEW MEXICO...

CITY           SKY/WX    TMP DP  RH WIND       PRES   REMARKS
ALAMAGORDO     PTCLDY    64  41  42 S17G24    30.01R
ALBUQUERQUE    PTCLDY    57  23  26 SE7       29.99S
CANNON AFB     CLEAR     56  38  50 SW7       29.93F
CLOVIS         CLEAR     54  36  50 SW8       29.93F
HOLLOMAN AFB   CLEAR     66  42  42 SE21      29.98S
ROSWELL        PTCLDY    67  41  38 SW15G21   29.90F
RUIDOSO        PTCLDY    50  28  43 SW9       30.10F
SANTA FE       CLEAR     45  20  36 N5        30.02F
TRUTH OR CONSE CLEAR     60  30  32 S6        29.99R
TUCUMCARI      CLEAR     55  28  35 SW6       29.87F
$$

USA.gov is the U.S. government's official web portal to all federal, state and local government web resources and services.